Find Kuiper-00070

NORAD ID: 64817 Int'l Des: 2025-151 Owner: KUIP Country: US Constellation: kuiper operational
LEOCIRCULAR

リアルタイム位置

3D地球を読み込み中...

Kuiper-00070について

説明を読み込み中...

次回通過

Passes for default location (London). Set your location on the main map for personalized predictions.

高度履歴

Loading altitude history...

軌道要素

1 64817U 25151B 26106.26747165 .00001687 00000-0 25020-3 0 9997
2 64817 51.8988 139.3880 0000474 99.1884 260.9132 14.79943179 41982
Epoch: Apr 16, 2026 • Age: 9 hours

現在のステータス

高度 643.1 km
速度 7.54 km/s
衛星直下点 -40.67°S, 12.37°E
打ち上げ日 Jul 16, 2025
運用期間 0.7 years
タイプ internet

技術仕様

分類 Payload
質量 490.00 kg
乾燥質量 490.00 kg
総質量 490.00 kg
長さ 1.80 m
直径 0.70 m
スパン 5.00 m
形状 Box + 2 pan
製造者 KUIP
バスタイプ Kuiper
フェーズステータス In Orbit
所有者/国 KUIP/US

Most Searched